Погода в Белогорке

Погода в Белогорке : погода сейчас, прогноз погоды и архив. Всё, что Вы хотите узнать о погоде в Белогорке!

Хотите узнать прогноз погоды в Белогорке? Тогда Вам сюда: Погода в Белогорке

Поиск расширенной информации на нашем сайте:

Другие новости

Новости СМИ2

Главная страница сайта

Новости сайта

03.07.2017

Напоминаем, что на нашем специализированном сайте Метеоцентр.Азия вы можете получить высокодетализированные автоматические прогнозы погоды по пунктам России, СНГ и мира в авиационном формате (включающие направление и скорость ветра, видимость, явления погоды, количество и форму облачности, нижнюю и верхнюю границу облачности).

Рекомендуем: Top 4 магазин шокеров.

Погода в Белогорке - сегодня

Время (UTC), дата Ветер
(°,м/с) 
Видим.   Явления Облачность Т
(°С)
Тd
(°С)
f(%) Тe
(°С)
Pmin
(гПа)
dP
(гПа)
Po
(мм)
O2
(г/м3)
Тmin Tmax R s Состояние
почвы
15 19.07.17 200 (Ю) 3{10}  10 км  {ливн. осадки}  9/5 300 м кучево-дожд., средняя, верхняя 
[Cb cap|Ac trans|Ci fib]
+13.6 +10.6 82 +16  1013.5  -0.6  752  287         
18 19.07.17 210 (ЮЗ) 10 км  {ливн. осадки}  9/3 300 м кучево-дожд., средняя 
[Cb cap|Ac trans]
+13.4 +11.3 87 +16  1013.3  -0.2  752  287    +18     
21 19.07.17 220 (ЮЗ) 20000 м    9/0 средняя 
[Ac As]
+11.9 +10.7 92 +14  1013.1  -0.3  752  288           
00 20.07.17 230 (ЮЗ) 20000 м    9/0 средняя 
[Ac As]
+11.1 +9.9 92 +12  1013  0.1  752  289           
03 20.07.17 230 (ЮЗ) 10 км    9/3 600 м средняя 
[Sc|Ac trans]
+10.9 +9.8 93 +12  1012.5  -0.4  751  289  +10.6         
06 20.07.17 240 (ЮЗ) 10 км    9/5 600 м средняя 
[Sc|Ac trans]
+13.6 +10.9 84 +16  1012.5  751  286  +10.6        влажная 
09 20.07.17 280 (З) 4000 м  слаб. ливневой дождь  9/6 300 м кучево-дожд., средняя 
[Cb cap|Ac trans]
+14.2 +11.2 82 +18  1012.5  751  286           
12 20.07.17 250 (З) 10 км  {ливн. осадки}  9/4 300 м кучево-дожд., средняя 
[Cb cap|Ac trans]
+16.2 +9.7 65 +18  1012.3  -0.2  751  284           
15 20.07.17 260 (З) 10 км    9/5 300 м кучево-дожд., средняя 
[Cb cap|Ac trans]
+14.9 +10.9 77 +18  1012.2  0.1  751  285         
18 20.07.17 250 (З) 10 км    9/5 300 м кучево-дожд., средняя, верхняя 
[Cb cap|Ac trans|Ci fib]
+13.8 +11.3 85 +17  1012.6  0.3  751  286    +17     
21 20.07.17 210 (ЮЗ) 20000 м    4/3 600 м верхняя 
[Sc|Ci fib]
+7.9 +7.6 98 +9  1013.2  0.3  752  293           
00 21.07.17 190 (Ю) 20000 м    5/3 600 м средняя, верхняя 
[Sc|Ac trans|Ci fib]
+7.9 +7.7 99 +9  1013.3  0.2  752  293           
03 21.07.17 220 (ЮЗ) 1000 м  дымка  4/0 средняя, верхняя 
[Ac trans|Ci fib]
+9.1 +8.9 99 +10  1013.8  0.5  752  292  +6.5         
06 21.07.17 240 (ЮЗ) 4000 м  дымка  9/9 630 м 
[Sc]
+12.9 +12.6 98 +19  1014.4  0.8  753  287  +6.5        влажная 
09 21.07.17 300 (СЗ) 10 км    9/9 420 м кучево-дожд. 
[Cb cap]
+17.3 +10.9 66 +20  1014.7  0.4  753  283           
12 21.07.17 330 (СЗ) 10 км  в посл. час ливневой дождь  8/4 300 м кучево-дожд., средняя, верхняя 
[Cb cap|Ac trans|Ci fib]
+19.8 +10.7 56 +23  1014.6  753  281           
15 21.07.17 тихо ()   10 км  {ливн. осадки}  9/9 420 м кучево-дожд. 
[Cb cap]
+15.9 +11 73 +18  1015.5  0.7  754  285         
18 21.07.17 тихо ()   10 км  {ливн. осадки}  8/3 600 м средняя 
[Sc|Ac trans]
+14.1 +12.1 88 +18  1016.1  0.6  754  287    +20.7     
21 21.07.17 220 (ЮЗ) 20000 м    3/0 средняя 
[Ac trans]
+9.5 +9.2 98 +11  1016.8  0.5  754  292           
00 22.07.17 200 (Ю) 20000 м  местами туман поземный  1/0 средняя 
[Ac trans]
+8.5 +8.3 99 +10  1017.2  0.4  755  293           
03 22.07.17 220 (ЮЗ) 10 км    3/0 средняя 
[Ac trans]
+8.8 +8.6 99 +10  1017.5  0.3  755  293  +6.5    0.3     
06 22.07.17 320 (СЗ) 10 км    3/3 600 м 
[Cu hum]
+17.1 +13 77 +24  1017.6  0.4  755  284  +6.5        влажная 
09 22.07.17 020 (С) 10 км  в посл. час ливневой дождь  9/9 420 м кучево-дожд. 
[Cb cap]
+15.9 +13.5 86 +23  1017.6  755  285           
12 22.07.17 300 (СЗ) 10 км  {ливн. осадки}  8/4 300 м кучево-дожд., средняя, верхняя 
[Cb cap|Ac trans|Ci fib]
+20.2 +9.7 51 +21  1017.3  -0.2  755  282           
15 22.07.17 350 (С) 10 км    8/4 300 м кучево-дожд., верхняя 
[Cb cap|Ci fib]
+18.4 +10 58 +20  1017.7  0.3  755  283      0.0     
Время (UTC), дата Ветер
(°,м/с) 
Видим.   Явления Облачность Т
(°С)
Тd
(°С)
f(%) Тe
(°С)
Pmin
(гПа)
dP
(гПа)
Po
(мм)
O2
(г/м3)
Тmin Tmax R s Состояние
почвы

Для получения пояснительной информации подведите курсор к названию столбца.

ПОГОДА в Белогорке - архив

Всё, что Вы хотите узнать о погоде в Белогорке - удобно и подробно!

Выберите нужную дату (начиная с 1 января 2015* года) и нажмите кнопку "Найти".
Будут отображены архивные сводки погоды по пункту Белогорка, начиная с указанной даты.


Отображать данные в формате CSV (для использования в таблицах Excel)


Внимание! Наш архив погоды предназначен исключительно для личного некоммерческого использования в познавательных целях. Если Вам необходимы официальные справки о состоянии погоды (для производственных, юридических, коммерческих и т.п. целей), обращайтесь в органы Росгидромета.

*Примечание: данная дата относится к архиву по метеостанциям СССР (Россия, СНГ, Балтия).
Архив по метеостанциям Зарубежной Европы и Азии (кроме Китая) хранится 10 дней, по другим регионам земного шара (Китай, Африка, Америка, Австралия, Океания) - 1 день.

Белогорка - район местоположения метеостанции


Название, широта, долгота, высота метеостанции:
Белогорка 59.3°ш. 30.1°д. 90 м над ур. моря [Российская Федерация]

Дополнительная информация

В oтличие oт бoльшинства пoгoдных сайтoв мы публикуем пoдрoбную метеoинфoрмацию в детальнoм прoфессиoнальнoм фoрмате.

Характеристики температуры и влажнoсти вoздуха измеряются на высoте 2 м в тени вдали oт зданий и деревьев.
Скoрoсть ветра измеряется на высoте 10 м (на урoвне рoста челoвека скoрoсть ветра ниже в 1.5-2 раза). Если метеoстанция нахoдится в гoрoде или в лесу, тo скoрoсть ветра занижена на 2-4 м/с пo сравнению с oткрытым местoм. Скoрoсть ветра над акватoриями крупных рек и oзёр, а также на вершинах хoлмoв на 2-5 м/с выше, чем в oбычных услoвиях.
Атмoсфернoе давление в разных тoчках местнoсти мoжет значительнo oтличаться oт давления на метеoстанции, в зависимoсти oт услoвий рельефа (при пoдъёме на 10 м давление пoнижается примернo на 1 мм рт.ст.).